Cheraw, SC

1:49 PM EDT on October 17, 2017 (GMT -0400)
Cheraw

Weather History for KCQW - February, 2013

Change the Weather History Date:

Thursday, February 7, 2013

  Actual Average (KFLO) Record (KFLO)
Temperature  
Mean Temperature 45 °F -  
Max Temperature 51 °F 55 °F 80 °F (1999)
Min Temperature 39 °F 35 °F 17 °F (1978)
Degree Days  
Heating Degree Days 20    
Moisture  
Dew Point 40 °F    
Average Humidity 85    
Maximum Humidity 100    
Minimum Humidity 53    
Precipitation  
Precipitation 1.15 in - - ()
Sea Level Pressure  
Sea Level Pressure 30.14 in    
Wind  
Wind Speed 15 mph (NE)    
Max Wind Speed 33 mph    
Max Gust Speed 40 mph    
Visibility 7 miles    
Events Rain    
Averages and records for this station are not official NWS values.
T = Trace of Precipitation, MM = Missing Value Source: NWS Daily Summary

Daily Weather History Graph

Daily Weather History Graph

Search for Another Location

Airport or City:

Trip Planner

Search our weather history database for the weather conditions in past years. The results will help you decide how hot, cold, wet, or windy it might be!

Date:

Astronomy

Feb. 07, 2013 Rise Set
Actual Time 7:13 AM EST 5:55 PM EST
Civil Twilight 6:46 AM EST 6:21 PM EST
Nautical Twilight 6:16 AM EST 6:51 PM EST
Astronomical Twilight 5:47 AM EST 7:21 PM EST
Moon 4:47 AM EST (2/7) 3:21 PM EST (2/7)
Length of Visible Light 11h 34m
Length of Day
10h 42m
Waning Crescent, 9% of the Moon is Illuminated
Feb 7
Waning Crescent
Feb 10
New
Feb 17
First Quarter
Feb 25
Full
Mar 4
Last Quarter

Hourly Weather History & Observations

Time (EST) Temp. Windchill Dew Point Humidity Pressure Visibility Wind Dir Wind Speed Gust Speed Precip Events Conditions
12:15 AM 44.6 °F 38.1 °F 28.4 °F 53% 30.22 in 10.0 mi NE 13.8 mph - N/A   Clear
12:35 AM 44.6 °F 37.8 °F 28.4 °F 53% 30.21 in 10.0 mi ENE 15.0 mph 19.6 mph N/A   Clear
1:15 AM 44.6 °F 39.2 °F 28.4 °F 53% 30.20 in 10.0 mi ENE 10.4 mph - N/A   Clear
1:35 AM 44.6 °F 41.4 °F 28.4 °F 53% 30.21 in 10.0 mi ENE 5.8 mph - N/A   Clear
1:55 AM 44.6 °F 40.7 °F 28.4 °F 53% 30.21 in 10.0 mi ENE 6.9 mph - N/A   Clear
2:15 AM 42.8 °F 40.1 °F 30.2 °F 61% 30.22 in 10.0 mi ENE 4.6 mph - N/A   Clear
2:35 AM 42.8 °F 41.1 °F 30.2 °F 61% 30.22 in 10.0 mi ENE 3.5 mph - N/A   Clear
2:55 AM 41.0 °F 36.4 °F 30.2 °F 65% 30.21 in 10.0 mi NE 6.9 mph - N/A   Clear
3:15 AM 41.0 °F 36.4 °F 32.0 °F 70% 30.21 in 10.0 mi ENE 6.9 mph - N/A   Clear
3:35 AM 39.2 °F 33.6 °F 32.0 °F 75% 30.22 in 10.0 mi ENE 8.1 mph - N/A   Clear
3:55 AM 39.2 °F 32.0 °F 33.8 °F 81% 30.22 in 10.0 mi NE 11.5 mph - N/A   Clear
4:15 AM 39.2 °F 31.6 °F 33.8 °F 81% 30.22 in 10.0 mi NE 12.7 mph - N/A   Clear
4:35 AM 41.0 °F 33.9 °F 35.6 °F 81% 30.21 in 10.0 mi NE 12.7 mph 19.6 mph N/A   Clear
4:55 AM 39.2 °F 32.0 °F 35.6 °F 87% 30.23 in 10.0 mi NE 11.5 mph - N/A   Clear
5:15 AM 39.2 °F 33.0 °F 35.6 °F 87% 30.24 in 10.0 mi NE 9.2 mph - N/A   Clear
5:35 AM 39.2 °F 33.0 °F 35.6 °F 87% 30.24 in 10.0 mi NE 9.2 mph - N/A   Clear
5:55 AM 39.2 °F 32.5 °F 37.4 °F 93% 30.25 in 10.0 mi NE 10.4 mph - N/A   Clear
6:15 AM 39.2 °F 33.6 °F 37.4 °F 93% 30.25 in 10.0 mi NE 8.1 mph - N/A   Clear
6:35 AM 39.2 °F 33.0 °F 37.4 °F 93% 30.24 in 10.0 mi NE 9.2 mph - N/A   Clear
6:55 AM 39.2 °F 32.0 °F 37.4 °F 93% 30.24 in 10.0 mi NE 11.5 mph - N/A   Clear
7:15 AM 39.2 °F 31.6 °F 39.2 °F 100% 30.24 in 8.0 mi NNE 12.7 mph - N/A   Clear
7:35 AM 41.0 °F 33.5 °F 39.2 °F 93% 30.24 in 9.0 mi North 13.8 mph - N/A   Clear
7:55 AM 39.2 °F 32.5 °F 37.4 °F 93% 30.26 in 10.0 mi NNE 10.4 mph - N/A   Clear
8:15 AM 39.2 °F 29.6 °F 37.4 °F 93% 30.25 in 9.0 mi NNE 19.6 mph - N/A   Clear
9:15 AM 42.8 °F 33.8 °F 39.2 °F 87% 30.26 in 8.0 mi NE 21.9 mph 25.3 mph N/A   Clear
9:35 AM 44.6 °F 37.4 °F 39.2 °F 81% 30.25 in 8.0 mi NE 16.1 mph 25.3 mph N/A   Scattered Clouds
9:55 AM 44.6 °F 35.9 °F 41.0 °F 87% 30.24 in 9.0 mi NE 23.0 mph 31.1 mph N/A   Partly Cloudy
10:15 AM 46.4 °F 37.5 °F 41.0 °F 81% 30.24 in 10.0 mi NE 27.6 mph 32.2 mph N/A   Clear
10:35 AM 46.4 °F 38.5 °F 41.0 °F 81% 30.23 in 10.0 mi NE 21.9 mph 33.4 mph N/A   Clear
10:55 AM 48.2 °F - 42.8 °F 82% 30.22 in 10.0 mi NE 20.7 mph 32.2 mph N/A   Clear
11:15 AM 48.2 °F - 42.8 °F 82% 30.22 in 10.0 mi ENE 17.3 mph 26.5 mph N/A   Clear
11:35 AM 48.2 °F - 42.8 °F 82% 30.23 in 10.0 mi NE 17.3 mph 24.2 mph N/A   Clear
11:55 AM 48.2 °F - 42.8 °F 82% 30.21 in 10.0 mi NE 16.1 mph 24.2 mph N/A   Clear
12:15 PM 50.0 °F - 42.8 °F 76% 30.21 in 10.0 mi NNE 18.4 mph 23.0 mph N/A   Clear
12:35 PM 50.0 °F - 42.8 °F 76% 30.19 in 10.0 mi NNE 17.3 mph 25.3 mph N/A   Clear
12:55 PM 50.0 °F - 42.8 °F 76% 30.17 in 10.0 mi NNE 21.9 mph 25.3 mph N/A   Clear
1:15 PM 50.0 °F - 42.8 °F 76% 30.16 in 10.0 mi NE 19.6 mph 25.3 mph N/A   Clear
1:35 PM 51.8 °F - 42.8 °F 71% 30.15 in 10.0 mi NNE 15.0 mph 24.2 mph N/A   Clear
1:55 PM 50.0 °F - 42.8 °F 76% 30.15 in 7.0 mi NNE 17.3 mph 21.9 mph N/A   Partly Cloudy
2:15 PM 51.8 °F - 42.8 °F 71% 30.15 in 9.0 mi NNE 13.8 mph 23.0 mph N/A   Clear
2:35 PM 51.8 °F - 42.8 °F 71% 30.14 in 10.0 mi NNE 19.6 mph 24.2 mph N/A   Clear
2:55 PM 51.8 °F - 42.8 °F 71% 30.14 in 10.0 mi NNE 19.6 mph 25.3 mph N/A   Clear
3:15 PM 50.0 °F - 42.8 °F 76% 30.13 in 8.0 mi NE 19.6 mph 28.8 mph N/A Rain Light Rain
3:35 PM 50.0 °F - 44.6 °F 82% 30.12 in 5.0 mi NE 17.3 mph 23.0 mph N/A   Light Drizzle
3:55 PM 48.2 °F - 44.6 °F 87% 30.11 in 6.0 mi NNE 25.3 mph 29.9 mph N/A Rain Light Rain
4:15 PM 48.2 °F - 44.6 °F 87% 30.10 in 6.0 mi NNE 19.6 mph 29.9 mph N/A Rain Light Rain
4:35 PM 48.2 °F - 44.6 °F 87% 30.10 in 3.0 mi NNE 16.1 mph 20.7 mph 0.01 in Rain Light Rain
4:55 PM 46.4 °F 39.8 °F 44.6 °F 93% 30.09 in 2.5 mi NNE 16.1 mph 24.2 mph 0.05 in Rain Rain
5:15 PM 46.4 °F 37.7 °F 44.6 °F 93% 30.08 in 2.5 mi NNE 26.5 mph 34.5 mph 0.03 in Rain Rain
5:35 PM 46.4 °F 38.1 °F 44.6 °F 93% 30.07 in 3.0 mi NE 24.2 mph 39.1 mph 0.05 in Rain Light Rain
5:55 PM 44.6 °F 36.4 °F 44.6 °F 100% 30.06 in 3.0 mi NE 20.7 mph 38.0 mph 0.05 in Rain Light Rain
6:15 PM 44.6 °F 35.3 °F 44.6 °F 100% 30.05 in 4.0 mi NE 26.5 mph 32.2 mph 0.01 in Rain Light Rain
6:35 PM 44.6 °F 36.4 °F 44.6 °F 100% 30.05 in 4.0 mi NE 20.7 mph 31.1 mph 0.02 in Rain Light Rain
6:55 PM 44.6 °F 36.1 °F 44.6 °F 100% 30.05 in 4.0 mi NNE 21.9 mph 31.1 mph 0.02 in Rain Light Rain
7:15 PM 44.6 °F 36.9 °F 42.8 °F 93% 30.05 in 4.0 mi NNE 18.4 mph 27.6 mph N/A Rain Light Rain
7:35 PM 44.6 °F 36.4 °F 42.8 °F 93% 30.03 in 3.0 mi NNE 20.7 mph 31.1 mph 0.02 in Rain Light Rain
7:55 PM 44.6 °F 36.9 °F 42.8 °F 93% 30.03 in 3.0 mi NNE 18.4 mph 25.3 mph 0.04 in Rain Light Rain
8:15 PM 44.6 °F 36.6 °F 44.6 °F 100% 30.01 in 3.0 mi NE 19.6 mph 29.9 mph 0.02 in Rain Light Rain
8:35 PM 44.6 °F 35.5 °F 44.6 °F 100% 29.99 in 3.0 mi NNE 25.3 mph 34.5 mph 0.02 in Rain Light Rain
8:55 PM 44.6 °F 35.3 °F 44.6 °F 100% 29.98 in 3.0 mi NE 26.5 mph 39.1 mph 0.03 in   Light Drizzle
9:15 PM 44.6 °F 35.9 °F 44.6 °F 100% 29.96 in 5.0 mi NE 23.0 mph 38.0 mph N/A   Overcast
9:35 PM 44.6 °F 35.7 °F 44.6 °F 100% 29.96 in 5.0 mi NNE 24.2 mph 38.0 mph N/A Rain Light Rain
9:55 PM 44.6 °F 36.6 °F 44.6 °F 100% 29.96 in 3.0 mi NNE 19.6 mph 32.2 mph 0.05 in Rain Heavy Rain
10:15 PM 46.4 °F 37.4 °F 46.4 °F 100% 29.93 in 3.0 mi NNE 28.8 mph 38.0 mph 0.14 in Rain Heavy Rain
10:35 PM 44.6 °F 36.1 °F 44.6 °F 100% 29.92 in 2.0 mi North 21.9 mph 33.4 mph 0.28 in Rain Heavy Rain
10:55 PM 46.4 °F 36.7 °F 46.4 °F 100% 29.92 in 2.5 mi North 33.4 mph 40.3 mph 0.46 in Rain Heavy Rain
11:15 PM 44.6 °F 35.7 °F 44.6 °F 100% 29.91 in 2.5 mi North 24.2 mph 31.1 mph 0.11 in Rain Heavy Rain
11:35 PM 44.6 °F 34.6 °F 44.6 °F 100% 29.89 in 2.5 mi North 31.1 mph 40.3 mph 0.25 in Rain Heavy Rain
11:55 PM 44.6 °F 35.5 °F 44.6 °F 100% 29.89 in 2.0 mi North 25.3 mph 36.8 mph 0.45 in Rain Heavy Rain